Regional Weather Roundup
Issued by NWS Wakefield, VA

Current Version | Previous Version | Text Only | Print | Product List | Glossary On
Versions: 1 2 3 4 5 6 7 8 9 10 11 12 13 14 15 16 17 18 19 20 21 22 23 24 25 26 27 28 29 30 31 32 33 34 35 36 37 38 39 40 41 42 43 44 45 46 47 48 49 50
000
ASUS41 KAKQ 012210
RWRAKQ

REGIONAL WEATHER ROUNDUP
NATIONAL WEATHER SERVICE WAKEFIELD VA
600 PM EDT FRI AUG 01 2014

Note: "fair" indicates few or no clouds below 12,000 feet with no
significant weather and/or obstructions to visibility. * = Denotes
station may not report precipitation (e.g., rain,snow,etc.),
thunder or fog.

VAZ042-051-052>054-056-012300-
NORTHERN VIRGINIA

CITY           SKY/WX    TMP DP  RH WIND       PRES   REMARKS
WASH NATIONAL  CLOUDY    79  64  60 SE14      30.16F
DULLES         CLOUDY    76  61  59 S5        30.16F
FORT BELVOIR   CLOUDY    73  62  68 SE8       30.17S
QUANTICO       CLOUDY    75  65  70 E7        30.16F
FREDERICKSBRG* CLOUDY    76  66  71 E3        30.14F
STAFFORD*      CLOUDY    76  66  72 CALM      30.19F
WARRENTON      CLOUDY    77  70  79 SE3       30.16S
CULPEPER*      CLOUDY   N/A N/A N/A CALM      30.17S
MANASSAS*      SUNNY     75  66  73 SE3       30.16
LEESBURG*      CLOUDY    75  68  78 CALM      30.17F
WINCHESTER     PTSUNNY   73  63  68 SE6       30.17S
$$

VAZ048-049-060>072-079>083-012300-
CENTRAL AND SOUTH CENTRAL VIRGINIA...AND NORTH CENTRAL NORTH CAROLINA

CITY           SKY/WX    TMP DP  RH WIND       PRES   REMARKS
RICHMOND       LGT RAIN  72  67  84 E3        30.15R FOG
CHESTERFIELD*  CLOUDY   N/A N/A N/A E6        30.16S
HANOVER        LGT RAIN  71  67  87 E5        30.17R FOG
TAPPAHANNOCK*  LGT RAIN  73  67  82 E3        30.16R
CHARLOTTSVILLE PTSUNNY   74  62  66 SE6       30.16F
ORANGE*        PTSUNNY   73  64  73 E5        30.18S
LOUISA*        CLOUDY    73  66  78 CALM      30.15F
FARMVILLE*     LGT RAIN  70  70 100 N3        30.12F
SOUTH HILL*    RAIN      64  64 100 N6        30.16F
ROANOKE RAPIDS RAIN      64  64 100 N9        30.09F
RALEIGH        LGT RAIN  65  61  87 NE13      30.10S FOG
$$

VAZ088>098-012300-
SOUTHEAST VIRGINIA

CITY           SKY/WX    TMP DP  RH WIND       PRES   REMARKS
NORFOLK        LGT RAIN  75  67  76 E10       30.12R
VIRGINIA BEACH LGT RAIN  71  61  70 SE14G21   30.12R
NORFOLK NAVAL  RAIN      74  68  81 E14       30.12F
WEST POINT*    CLOUDY    74  66  75 NE3       30.15R
NEWPORT NEWS   LGT RAIN  75  63  66 E10       30.12F
LANGLEY AFB    LGT RAIN  72  72 100 E12       30.10F FOG
FORT EUSTIS    DRIZZLE   74  66  76 E5        30.10F
WILLIAMSBURG*  CLOUDY    72  66  83 CALM      30.13S
FRANKLIN*      CLOUDY    66  66 100 NE7       30.12S
WAKEFIELD      RAIN      70  67  90 N3        30.13S FOG
$$

VAZ020-022-025-037-045-012300-
WESTERN AND SOUTHWEST VIRGINIA

CITY           SKY/WX    TMP DP  RH WIND       PRES   REMARKS
STAUNTON*      PTSUNNY   73  58  58 SE5       30.20S
HOT SPRINGS VA PTSUNNY   62  53  71 SE7       30.26F
LYNCHBURG      LGT RAIN  69  65  86 N7        30.17S
DANVILLE       LGT RAIN  68  64  87 E9        30.13R
MARTINSVILLE   DRIZZLE   69  65  88 NE3       30.16S
ROANOKE        LGT RAIN  68  63  84 N5        30.18F
BLACKSBURG     LGT RAIN  64  64 100 E8        30.21F
DUBLIN*        CLOUDY    68  62  82 E7        30.19F
MARION*        CLOUDY    68  56  66 E7        30.20F
HILLSVILLE*    LGT RAIN  63  61  95 NE6       30.19F
RICHLANDS*     CLEAR     73  58  61 SE9       30.17S
WISE*          SUNNY     77  59  53 S3        30.16S
ABINGDON*      MOSUNNY   74  60  61 SE13      30.14F
$$

MDZ021>025-VAZ099-100-012300-
SOUTHERN MARYLAND AND THE DELMARVA PENINSULA

CITY           SKY/WX    TMP DP  RH WIND       PRES   REMARKS
PATUXENT RIVER LGT RAIN  73  60  63 E9        30.15F
BAY BRIDGE APT   N/A     75  64  69 SE9       30.16F
LEONARDTOWN    CLOUDY    72  63  73 E5        30.16F
DOVER          CLOUDY    73  72  94 SE6       30.17R
GEORGETOWN     CLOUDY    75  67  76 SE6       30.18F
EASTON         LGT RAIN  75  73  94 CALM      30.20F
CAMBRIDGE      CLOUDY    77  64  65 CALM      30.16S
SALISBURY      LGT RAIN  76  69  79 NE5       30.16F
OCEAN CITY     CLOUDY    75  69  81 E7        30.16F
WALLOPS ISLAND CLOUDY    76  68  76 E10       30.15F
ACCOMACK*        N/A     73  66  78 E7        30.13F
$$

NCZ012>017-030>032-012300-
EASTERN NORTH CAROLINA

CITY           SKY/WX    TMP DP  RH WIND       PRES   REMARKS
ELIZABETH CITY CLOUDY    73  71  93 E7        30.10S
AHOSKIE*       CLOUDY    67  65  92 NE6       30.10F
EDENTON*       CLOUDY    71  70  97 NE3       30.09S
CURRITUCK*     DRIZZLE   74  70  88 E7        30.11F
KILL DEVIL HLS LGT RAIN  71  70  96 SE5       30.09F
MANTEO         NOT AVBL
CAPE HATTERAS  RAIN      74  73  97 SE12      30.10F FOG
GOLDSBORO      LGT RAIN  72  72 100 NE15      30.02S
WASHINGTON     CLOUDY    74  72  94 SE5       30.07S
GREENVILLE     CLOUDY    70  68  94 NE7       30.08S
NEW BERN       LGT RAIN  77  73  87 SE7       30.07S
WILMINGTON     CLOUDY    79  71  76 S7        30.03S
$$

VAZ048-012300-
ELSEWHERE

CITY           SKY/WX    TMP DP  RH WIND       PRES   REMARKS
HARRISBURG PA  CLOUDY    76  67  73 SE3       30.16S
BALTIMORE      CLOUDY    77  63  61 S5        30.16S
ANNAPOLIS      CLOUDY    76  65  68 S10       30.16S
ANDREWS AFB    CLOUDY    73  65  75 SE7       30.16F
WILMINGTON DE  CLOUDY    72  68  87 E6        30.19F
PHILADELPHIA   CLOUDY    73  67  81 SE6       30.19S
WILDWOOD NJ*   CLOUDY    73  66  78 E6        30.20S
ATLANTIC CITY  CLOUDY    74  63  68 SE5       30.19F
HENDERSON NC   LGT RAIN  63  61  93 NE8G16    30.11F
GREENSBORO     LGT RAIN  66  65  96 E10       30.10S FOG
ROCKY MOUNT    LGT RAIN  68  66  93 NE8       30.07F FOG
FAYETTEVILLE   CLOUDY    72  69  90 N12       30.02F
CHARLOTTE      CLOUDY    69  64  84 N8        30.09S
$$

VAZ100-012300-
MARINE

STATION/POSITION TIME  TEMP    WIND        PRES    WAVE   SWELL
                       AIR SEA DIR/SP/G            HT/PER HT/PER
                 (UTC) (F)     (DEG/KT/KT) (MB)    (FT/S) (FT/S)
44066 TX TWR #4  2200   75 75  120/  8/ 10 1022.7F   3/ 7   3/ 7
CAPE MAY NJ      2200   74 76  110/  5/  7 1021.6F
LEWES DE         2200   74 72  130/  4/  5 1021.5F
15NM E FENWICK I 2200   75 75              1021.7F   2/ 7
OCEAN-CITY-INLET 2200   74 71   80/  5/  8 1021.0F
WACHAPREAGUE VA  2200   75 78   70/ 10/ 13 1020.0F
THOMAS POINT MD  2200   75 78  160/ 12/ 12 1021.8F
GOOSES REEF MD   2200   75     110/  6/  8 1021.8F
COVE POINT MD    2200   76     150/  8/ 11 1021.1F
SOLOMONS ISLAND  2200      79                N/A
BISHOPS HEAD MD  2200   74 77  100/ 10/ 11 1020.4F
PINEY POINT MD   2200          120/ 12/ 13   N/A
POTOMAC MD       2200   76     120/ 12/ 16 1020.0S
CAMBRIDGE MD     2200   74 78  140/  2/  4 1021.3R
LEWISETTA VA     2200   75 78  100/ 10/ 12 1020.2F
RAPPAHANNOCK LGT 2200           70/ 15/ 17 1020.3F
STINGRAY PT      2200   76      90/ 14/ 16 1020.5F
YORK RVR RNG VA  2200   76      90/ 13/ 16 1019.3R
YORKTOWN VA      2200   76 79   80/ 16/ 18 1019.6F
JAMESTOWN VA     2200   72      80/  4/  8   N/A
DOMINION TERM VA 2200   74      40/  5/ 10 1019.5F
KIPTOPEKE VA     2200      80   90/  8/ 14   N/A
CHES BAY BRIDGE  2200   75 76   50/ 16/ 20 1018.7F
CAPE HENRY VA    2200   75      60/ 16/ 19 1018.1F
WILLOUBY STN VA  2200           70/ 15/ 18 1018.7F
S CRANEY ISL VA  2200           30/ 13/ 16 1019.1F
CAPE HENRY BUOY  2100      77                N/A     4/ 7
1ST LANDING BUOY 2200   76      70/ 16/ 17 1019.1S
CAPE CHARLES BUO 2200      74                N/A     3/ 4
OFFSHORE WE BUOY 2200      77                N/A     4/ 4
64NM E OF VA BCH 2200   76 78   80/ 16/ 19 1019.2F   4/ 5   2/10
DUCK PIER NC     2200   73 76  140/ 16/ 17 1018.5R
44056 DUCK FRF   2200                        N/A     4/ 5
OREGON INLET NC  2200   72 78  110/  5/  7 1019.5F
HATTERAS NC      2200   75 79  120/  9/ 12 1019.6F
DIAMOND SHLS NC  2200          VRB  4/  4  1019.8R   3/ 6   3/ 6
CAPE LOOKOUT NC  2100   76     130/  8/  9 1018.3F
$$


USA.gov is the U.S. government's official web portal to all federal, state and local government web resources and services.